Miscellaneous Local Product
Issued by NWS Hastings, NE

Home | Current Version | Previous Version | Graphics & Text | Print | Product List | Glossary On
Versions: 1 2 3 4 5 6 7 8 9 10 11 12 13 14 15 16 17 18 19 20 21 22 23 24 25 26 27 28 29 30 31 32 33 34 35 36 37 38 39 40 41 42 43 44 45 46 47 48 49 50
000
AXUS43 KGID 240302
MISGRI

GID CWA HOURLY WEATHER ROUNDUP
NATIONAL WEATHER SERVICE HASTINGS NE
1000 PM CDT SAT SEP 23 2017

NOTE: "FAIR" INDICATES FEW OR NO CLOUDS BELOW 12,000 FEET WITH NO
SIGNIFICANT WEATHER AND/OR OBSTRUCTIONS TO VISIBILITY.

...SOUTH CENTRAL NEBRASKA...

CITY           SKY/WX    TMP DP  RH WIND       PRES   REMARKS
GRAND ISLAND   MOCLDY    61  58  90 N6        29.89S
HASTINGS       CLOUDY    66  58  75 N3        29.88S
KEARNEY        MOCLDY    60  58  92 NE13      29.88F
ORD            MOCLDY    56  54  93 NE3       29.88F
YORK           CLOUDY    77  63  61 S12       29.88S
AURORA         CLOUDY    75  60  59 SE9       29.88S
LEXINGTON      CLOUDY    58  56  92 E6        29.88F
HOLDREGE       CLOUDY    60  59  96 E9        29.87F
HEBRON         PTCLDY    78  62  56 SE12      29.89S

...NEBRASKA PANHANDLE...

CITY           SKY/WX    TMP DP  RH WIND       PRES   REMARKS
CHADRON        LGT RAIN  46  44  93 N6        30.04R
ALLIANCE       LGT RAIN  44  43  96 N9        29.98F FOG
SCOTTSBLUFF    LGT RAIN  46  43  89 N5        29.99F
SIDNEY         RAIN      45  44  97 N17       29.97F FOG

...WESTERN AND NORTH CENTRAL NEBRASKA...

CITY           SKY/WX    TMP DP  RH WIND       PRES   REMARKS
VALENTINE      RAIN      51  49  92 NE10      29.94F
AINSWORTH      LGT RAIN  51  51 100 N10G18    29.93F
ONEILL         CLOUDY    55  55 100 NE7       29.90F
BROKEN BOW     LGT RAIN  56  56 100 CALM      29.89R
IMPERIAL       LGT RAIN  53  52  96 NE12      29.89F
NORTH PLATTE   HVY RAIN  53  51  93 N8        29.93R FOG
MCCOOK         HVY RAIN  58  58 100 NW8       29.91S FOG

...EASTERN NEBRASKA...

CITY           SKY/WX    TMP DP  RH WIND       PRES   REMARKS
NORFOLK        CLOUDY    59  57  93 N8        29.90F
SO SIOUX CITY  PTCLDY    78  64  61 SE12      29.87S
TEKAMAH        CLEAR     74  63  68 SE9       29.88S
COLUMBUS       CLOUDY    76  63  64 SE7       29.88S
ALBION         CLOUDY    59  56  91 NE3       29.91S
OMAHA EPPLEY   MOCLDY    79  65  62 SE10      29.91R
OFFUTT AFB     PTCLDY    73  65  74 E7        29.91R
MILLARD        CLOUDY    80  65  61 SE9       29.91S
LINCOLN        PTCLDY    80  63  55 SE16      29.90R
NEBRASKA CITY  PTCLDY    76  66  70 S9        29.94S
BEATRICE       PTCLDY    80  64  57 SE13G18   29.91S
FALLS CITY     CLEAR     74  66  76 S7        29.93R

...NORTHERN KANSAS...

CITY           SKY/WX    TMP DP  RH WIND       PRES   REMARKS
GOODLAND       RAIN      58  58 100 E14       29.88F FOG
HILL CITY      MOCLDY    79  59  50 S15       29.84S
NORTON         MOCLDY    61  55  82 NE7       29.85S
PHILLIPSBURG   CLEAR     81  57  44 SE13G22   29.84R
SMITH CENTER   CLEAR     75  57  53 SE14G21   29.86R
HAYS           CLEAR     78  59  51 S16       29.85R
RUSSELL        CLEAR     78  58  49 SE17      29.85S
CONCORDIA      PTCLDY    79  62  56 S16       29.89S
SALINA         CLEAR     82  61  48 SE17      29.88F
TOPEKA         CLEAR     72  67  84 E5        29.94S



USA.gov is the U.S. government's official web portal to all federal, state and local government web resources and services.